Tracking 30970 objects as of 3-Jul-2025
HD Live streaming from Space Station
objects crossing your sky now

SL-8 DEB

Track SL-8 DEB now!
10-day predictions


NORAD ID: 21936
Int'l Code: 1991-009CD
Perigee: 1,471.5 km
Apogee: 1,893.8 km
Inclination: 74.1 °
Period: 119.9 minutes
Semi major axis: 8053 km
RCS: 0.0437 m2 (small)
Launch date: February 12, 1991
Source: Commonwealth of Independent States (former USSR) (CIS)
Launch site: PLESETSK MISSILE AND SPACE COMPLEX (PKMTR)

Note: This is SATELLITE DEBRIS
Your satellite tracking list
Your tracking list is empty




NASA's NSSDC Master Catalog

Two Line Element Set (TLE):
1 21936U 91009CD  25183.82384352 -.00000115  00000-0 -11066-2 0  9999
2 21936  74.0627 124.8573 0262157 317.8761  67.4948 12.01193427466807
Source of the keplerian elements: AFSPC